Location: Mascot Post Office (historical)
(40.2645°N, 99.5462°W)
Time: 00:34:03
(UTC+00:00)

NOSS 3-4 (C) - Pass Details

Date: 21 October 2020
Orbit: 884 x 1328 km, 63.4° (Epoch: 28 November)

Event Time Altitude Azimuth Distance (km) Brightness Sun altitude
Rises 04:05:39 0° 327° (NNW) 3,840 7.2 -47.8°
Reaches altitude 10° 04:08:14 10° 331° (NNW) 2,944 6.4 -48.2°
Enters shadow 04:09:33 17° 334° (NNW) 2,504 6.0 -48.4°
